Ely, MN

4:28 AM CDT on September 25, 2016 (GMT -0500)
Ely Municipal

Weather History for KELO - June, 2014

Change the Weather History Date:

Wednesday, June 11, 2014

  Actual Average Record
Temperature  
Mean Temperature 60 °F -  
Max Temperature 75 °F 67 °F 82 °F (2007)
Min Temperature 44 °F 45 °F 35 °F (2006)
Degree Days  
Heating Degree Days 6    
Growing Degree Days 10 (Base 50)    
Moisture  
Dew Point 47 °F    
Average Humidity 65    
Maximum Humidity 100    
Minimum Humidity 33    
Precipitation  
Precipitation 0.27 in - - ()
Sea Level Pressure  
Sea Level Pressure 29.82 in    
Wind  
Wind Speed 2 mph (South)    
Max Wind Speed 12 mph    
Max Gust Speed 18 mph    
Visibility 10 miles    
Events Rain    
Averages and records for this station are not official NWS values.
T = Trace of Precipitation, MM = Missing Value Source: NWS Daily Summary

Daily Weather History Graph

Daily Weather History Graph

Search for Another Location

Airport or City:

Trip Planner

Search our weather history database for the weather conditions in past years. The results will help you decide how hot, cold, wet, or windy it might be!

Date:

Astronomy

Jun. 11, 2014 Rise Set
Actual Time 5:08 AM CDT 9:05 PM CDT
Civil Twilight 4:27 AM CDT 9:46 PM CDT
Nautical Twilight 3:31 AM CDT 10:42 PM CDT
Astronomical Twilight 2:02 AM CDT 12:13 AM CDT
Moon 7:28 PM CDT (6/11) 4:07 AM CDT (6/11)
Length of Visible Light 17h 18m
Length of Day
15h 57m
Waxing Gibbous, 97% of the Moon is Illuminated
Jun 11
Waxing Gibbous
Jun 12
Full
Jun 19
Last Quarter
Jun 27
New
Jul 5
First Quarter

Hourly Weather History & Observations

Time (CDT) Temp. Dew Point Humidity Pressure Visibility Wind Dir Wind Speed Gust Speed Precip Events Conditions
12:12 AM 53.6 °F 42.8 °F 67% 29.90 in 10.0 mi Calm Calm - N/A   Clear
12:33 AM 53.6 °F 42.8 °F 67% 29.89 in 10.0 mi Calm Calm - N/A   Clear
12:53 AM 51.8 °F 42.8 °F 71% 29.89 in 10.0 mi Calm Calm - N/A   Clear
1:12 AM 51.8 °F 42.8 °F 71% 29.89 in 10.0 mi Calm Calm - N/A   Clear
1:33 AM 48.2 °F 42.8 °F 82% 29.89 in 10.0 mi Calm Calm - N/A   Clear
1:53 AM 46.4 °F 42.8 °F 87% 29.88 in 10.0 mi Calm Calm - N/A   Clear
2:12 AM 46.4 °F 44.6 °F 93% 29.88 in 10.0 mi Calm Calm - N/A   Clear
2:33 AM 46.4 °F 42.8 °F 87% 29.88 in 10.0 mi Calm Calm - N/A   Clear
2:53 AM 46.4 °F 44.6 °F 93% 29.89 in 10.0 mi Calm Calm - N/A   Clear
3:13 AM 46.4 °F 42.8 °F 87% 29.89 in 10.0 mi Calm Calm - N/A   Clear
3:33 AM 44.6 °F 42.8 °F 93% 29.89 in 10.0 mi Calm Calm - N/A   Clear
3:53 AM 44.6 °F 42.8 °F 93% 29.89 in 10.0 mi Calm Calm - N/A   Clear
4:13 AM 46.4 °F 42.8 °F 87% 29.89 in 10.0 mi Calm Calm - N/A   Clear
4:33 AM 44.6 °F 42.8 °F 93% 29.89 in 10.0 mi Calm Calm - N/A   Clear
4:53 AM 44.6 °F 42.8 °F 93% 29.89 in 10.0 mi Calm Calm - N/A   Clear
5:13 AM 44.6 °F 42.8 °F 93% 29.89 in 10.0 mi Calm Calm - N/A   Clear
5:33 AM 44.6 °F 42.8 °F 93% 29.89 in 10.0 mi Calm Calm - N/A   Clear
5:53 AM 44.6 °F 42.8 °F 93% 29.89 in 10.0 mi Calm Calm - N/A   Clear
6:13 AM 44.6 °F 44.6 °F 100% 29.88 in 10.0 mi Calm Calm - N/A   Scattered Clouds
6:32 AM 48.2 °F 46.4 °F 93% 29.88 in 10.0 mi Calm Calm - N/A   Mostly Cloudy
6:53 AM 50.0 °F 48.2 °F 94% 29.88 in 10.0 mi Calm Calm - N/A   Overcast
7:13 AM 55.4 °F 48.2 °F 77% 29.88 in 10.0 mi Calm Calm - N/A   Mostly Cloudy
7:33 AM 57.2 °F 50.0 °F 77% 29.87 in 10.0 mi Calm Calm - N/A   Overcast
7:52 AM 60.8 °F 50.0 °F 68% 29.86 in 10.0 mi Calm Calm - N/A   Mostly Cloudy
8:13 AM 64.4 °F 50.0 °F 59% 29.86 in 10.0 mi SSW 3.5 mph - N/A   Mostly Cloudy
8:32 AM 64.4 °F 50.0 °F 59% 29.86 in 10.0 mi South 4.6 mph - N/A   Mostly Cloudy
8:53 AM 64.4 °F 50.0 °F 59% 29.86 in 10.0 mi South 3.5 mph - N/A   Scattered Clouds
9:32 AM 66.2 °F 50.0 °F 56% 29.85 in 10.0 mi SSW 4.6 mph - N/A   Clear
9:53 AM 69.8 °F 50.0 °F 49% 29.85 in 10.0 mi South 5.8 mph - N/A   Clear
10:13 AM 69.8 °F 48.2 °F 46% 29.85 in 10.0 mi SW 4.6 mph - N/A   Clear
10:33 AM 71.6 °F 48.2 °F 43% 29.85 in 10.0 mi SW 6.9 mph - N/A   Clear
10:53 AM 71.6 °F 48.2 °F 43% 29.84 in 10.0 mi SSW 8.1 mph - N/A   Clear
11:13 AM 71.6 °F 48.2 °F 43% 29.84 in 10.0 mi SSW 9.2 mph - N/A   Clear
11:32 AM 71.6 °F 48.2 °F 43% 29.83 in 10.0 mi SW 4.6 mph - N/A   Scattered Clouds
11:53 AM 73.4 °F 50.0 °F 44% 29.83 in 10.0 mi SW 6.9 mph - N/A   Scattered Clouds
12:13 PM 73.4 °F 46.4 °F 38% 29.83 in 10.0 mi SSW 4.6 mph - N/A   Scattered Clouds
12:32 PM 71.6 °F 48.2 °F 43% 29.82 in 10.0 mi SW 6.9 mph - N/A   Scattered Clouds
12:53 PM 73.4 °F 46.4 °F 38% 29.82 in 10.0 mi South 8.1 mph - N/A   Scattered Clouds
1:13 PM 73.4 °F 46.4 °F 38% 29.81 in 10.0 mi SSE 5.8 mph - N/A   Scattered Clouds
1:32 PM 73.4 °F 46.4 °F 38% 29.81 in 10.0 mi South 8.1 mph - N/A   Mostly Cloudy
1:53 PM 75.2 °F 46.4 °F 36% 29.80 in 10.0 mi SE 8.1 mph - N/A   Mostly Cloudy
2:13 PM 73.4 °F 46.4 °F 38% 29.80 in 10.0 mi SSE 8.1 mph - N/A   Scattered Clouds
2:32 PM 75.2 °F 44.6 °F 34% 29.79 in 10.0 mi SSE 9.2 mph - N/A   Scattered Clouds
2:53 PM 75.2 °F 44.6 °F 34% 29.79 in 10.0 mi South 11.5 mph 18.4 mph N/A   Scattered Clouds
3:13 PM 75.2 °F 44.6 °F 34% 29.79 in 10.0 mi SE 10.4 mph - N/A   Scattered Clouds
3:30 PM 73.4 °F 42.8 °F 33% 29.79 in 10.0 mi SSE 10.4 mph - N/A   Clear
4:50 PM 71.6 °F - N/A% 29.79 in - South 5.8 mph - N/A   Unknown
4:53 PM 71.6 °F 44.6 °F 38% 29.79 in - SSE 5.8 mph - N/A   Unknown
5:13 PM 71.6 °F 44.6 °F 38% 29.78 in 10.0 mi South 5.8 mph - N/A   Mostly Cloudy
5:32 PM 71.6 °F 44.6 °F 38% 29.77 in 10.0 mi South 9.2 mph - N/A   Mostly Cloudy
5:53 PM 69.8 °F 46.4 °F 43% 29.76 in 10.0 mi SSE 6.9 mph - N/A   Overcast
6:13 PM 69.8 °F 46.4 °F 43% 29.76 in 10.0 mi SSE 4.6 mph - N/A   Overcast
6:32 PM 68.0 °F 48.2 °F 49% 29.76 in 10.0 mi SSE 3.5 mph - N/A   Overcast
6:53 PM 66.2 °F 50.0 °F 56% 29.75 in 10.0 mi ESE 3.5 mph - N/A   Overcast
7:13 PM 66.2 °F 50.0 °F 56% 29.75 in 10.0 mi Calm Calm - N/A   Overcast
7:32 PM 66.2 °F 48.2 °F 52% 29.75 in 10.0 mi Calm Calm - N/A   Overcast
7:53 PM 64.4 °F 50.0 °F 59% 29.75 in 10.0 mi South 3.5 mph - N/A   Overcast
8:13 PM 64.4 °F 48.2 °F 56% 29.75 in 10.0 mi SSE 3.5 mph - N/A   Overcast
8:32 PM 64.4 °F 48.2 °F 56% 29.75 in 10.0 mi SSE 6.9 mph - N/A   Overcast
8:53 PM 64.4 °F 46.4 °F 52% 29.75 in 10.0 mi South 4.6 mph - N/A Rain Light Rain
9:13 PM 62.6 °F 48.2 °F 59% 29.75 in 10.0 mi SSE 5.8 mph - N/A Rain Light Rain
9:32 PM 59.0 °F 50.0 °F 72% 29.76 in 10.0 mi South 4.6 mph - 0.01 in Rain Rain
9:53 PM 57.2 °F 51.8 °F 82% 29.75 in 10.0 mi South 3.5 mph - 0.03 in Rain Light Rain
10:12 PM 57.2 °F 51.8 °F 82% 29.75 in 10.0 mi South 8.1 mph - 0.02 in Rain Light Rain
10:33 PM 55.4 °F 51.8 °F 88% 29.75 in 10.0 mi South 5.8 mph - 0.04 in Rain Light Rain
10:52 PM 55.4 °F 51.8 °F 88% 29.75 in 10.0 mi SSW 4.6 mph - 0.06 in Rain Light Rain
11:13 PM 53.6 °F 51.8 °F 94% 29.76 in 10.0 mi Calm Calm - 0.04 in Rain Rain
11:33 PM 53.6 °F 51.8 °F 94% 29.76 in 10.0 mi SSE 5.8 mph - 0.11 in Rain Rain
11:52 PM 53.6 °F 51.8 °F 94% 29.72 in 10.0 mi ESE 9.2 mph - 0.18 in Rain Rain